Grand Rapids, MI

4:59 AM EST on February 06, 2016 (GMT -0500)
Gerald R. Ford International

Weather History for KGRR - August, 2014

Change the Weather History Date:

Monday, August 11, 2014

  Actual Average Record
Temperature  
Mean Temperature 75 °F 72 °F  
Max Temperature 81 °F 81 °F 96 °F (1947)
Min Temperature 68 °F 62 °F 43 °F (1967)
Degree Days  
Heating Degree Days 0 0  
Month to date heating degree days 0 0  
Since 1 June heating degree days 22 51  
Since 1 July heating degree days 9 6  
Cooling Degree Days 10 7  
Month to date cooling degree days 84 77  
Year to date cooling degree days 440 508  
Since 1 June cooling degree days 387 461  
Growing Degree Days 24 (Base 50)    
Moisture  
Dew Point 67 °F    
Average Humidity 80    
Maximum Humidity 93    
Minimum Humidity 67    
Precipitation  
Precipitation 0.01 in 0.12 in 1.31 in (1941)
Month to date precipitation 0.01 1.27  
Year to date precipitation 22.85 22.40  
Snow  
Snow 0.00 in 0.00 in 0.00 in ()
Month to date snowfall 0.0 0.0  
Since 1 June snowfall 0.0 0.0  
Since 1 July snowfall 0.0 0.0  
Snow Depth 0.00 in    
Sea Level Pressure  
Sea Level Pressure 29.87 in    
Wind  
Wind Speed 5 mph (NE)    
Max Wind Speed 12 mph    
Max Gust Speed 15 mph    
Visibility 8 miles    
Events Rain    
T = Trace of Precipitation, MM = Missing Value Source: NWS Daily Summary

Daily Weather History Graph

Daily Weather History Graph

Search for Another Location

Airport or City:

Trip Planner

Search our weather history database for the weather conditions in past years. The results will help you decide how hot, cold, wet, or windy it might be!

Date:

Astronomy

Aug. 11, 2014 Rise Set
Actual Time 6:43 AM EDT 8:49 PM EDT
Civil Twilight 6:12 AM EDT 9:20 PM EDT
Nautical Twilight 5:34 AM EDT 9:58 PM EDT
Astronomical Twilight 4:52 AM EDT 10:40 PM EDT
Moon 9:13 PM EDT (8/11) 7:51 AM EDT (8/11)
Length of Visible Light 15h 07m
Length of Day
14h 06m
Full, 99% of the Moon is Illuminated
Aug 11
Full
Aug 17
Last Quarter
Aug 25
New
Sep 2
First Quarter
Sep 8
Full

Hourly Weather History & Observations

Time (EDT) Temp. Heat Index Dew Point Humidity Pressure Visibility Wind Dir Wind Speed Gust Speed Precip Events Conditions
12:53 AM 71.1 °F - 66.0 °F 84% 29.99 in 10.0 mi ENE 8.1 mph - N/A   Clear
1:53 AM 70.0 °F - 66.0 °F 87% 29.97 in 10.0 mi ENE 6.9 mph - N/A   Clear
2:53 AM 70.0 °F - 64.0 °F 81% 29.96 in 10.0 mi ENE 4.6 mph - N/A   Clear
3:53 AM 69.1 °F - 66.0 °F 90% 29.94 in 9.0 mi ENE 5.8 mph - N/A   Clear
4:53 AM 68.0 °F - 66.0 °F 93% 29.94 in 8.0 mi ENE 5.8 mph - N/A   Clear
5:53 AM 68.0 °F - 66.0 °F 93% 29.93 in 8.0 mi ENE 5.8 mph - N/A   Overcast
6:53 AM 70.0 °F - 64.9 °F 84% 29.94 in 8.0 mi NW 4.6 mph - N/A   Overcast
7:10 AM 70.0 °F - 64.0 °F 81% 29.96 in 7.0 mi NW 3.5 mph - N/A   Overcast
7:53 AM 70.0 °F - 66.0 °F 87% 29.93 in 6.0 mi NNE 3.5 mph - N/A   Overcast
8:12 AM 70.0 °F - 66.0 °F 87% 29.94 in 6.0 mi Calm Calm - 0.00 in Rain Light Rain
8:53 AM 71.1 °F - 68.0 °F 90% 29.92 in 6.0 mi NNE 4.6 mph - 0.00 in   Overcast
9:53 AM 75.0 °F - 68.0 °F 79% 29.89 in 8.0 mi Variable 5.8 mph - N/A   Mostly Cloudy
10:53 AM 75.9 °F - 68.0 °F 76% 29.88 in 8.0 mi North 5.8 mph - N/A   Overcast
11:53 AM 75.0 °F - 70.0 °F 84% 29.88 in 6.0 mi NE 5.8 mph - 0.00 in Rain Light Rain
12:53 PM 75.0 °F - 70.0 °F 84% 29.88 in 6.0 mi NNE 4.6 mph - 0.00 in Rain Light Rain
1:53 PM 73.9 °F - 71.1 °F 91% 29.87 in 5.0 mi North 4.6 mph - 0.01 in Rain Light Rain
2:53 PM 75.9 °F - 71.1 °F 85% 29.84 in 7.0 mi North 5.8 mph - 0.00 in   Overcast
4:42 PM 80.1 °F 82.7 °F 68.0 °F 67% 29.82 in 10.0 mi NNE 4.6 mph - N/A   Overcast
4:53 PM 79.0 °F - 68.0 °F 69% 29.81 in 10.0 mi NNE 6.9 mph - N/A   Overcast
5:25 PM 79.0 °F - 68.0 °F 69% 29.81 in 10.0 mi NNE 6.9 mph - N/A   Overcast
5:53 PM 80.1 °F 82.7 °F 68.0 °F 67% 29.80 in 10.0 mi NNW 5.8 mph - N/A   Overcast
6:53 PM 78.1 °F - 69.1 °F 74% 29.78 in 10.0 mi NE 9.2 mph - N/A   Mostly Cloudy
7:53 PM 77.0 °F - 66.0 °F 69% 29.77 in 10.0 mi NE 4.6 mph - N/A   Mostly Cloudy
8:53 PM 73.0 °F - 64.0 °F 73% 29.76 in 10.0 mi Calm Calm - N/A   Mostly Cloudy
9:53 PM 71.1 °F - 66.9 °F 87% 29.77 in 8.0 mi SE 6.9 mph - N/A   Overcast
10:53 PM 69.1 °F - 66.9 °F 93% 29.77 in 7.0 mi South 3.5 mph - N/A   Mostly Cloudy
11:04 PM 69.1 °F - 66.0 °F 90% 29.78 in 7.0 mi South 3.5 mph - N/A   Mostly Cloudy
11:53 PM 69.1 °F - 66.0 °F 90% 29.74 in 7.0 mi SSW 3.5 mph - 0.00 in Rain Light Rain